Location: Dennehotso
(36.8461°N, 109.8435°W)
Time: 14:36:06
(UTC+00:00)

ISS - Pass Details

Date: 08 March 2021
Orbit: 418 x 422 km, 51.6° (Epoch: 13 April)

Event Time Altitude Azimuth Distance (km) Brightness Sun altitude
Exits shadow 12:29:06 - 333° (NNW) 1,738 -0.8 -15.0°
Reaches altitude 10° 12:29:52 10° 340° (NNW) 1,498 -1.1 -14.8°
Maximum altitude 12:32:20 19° 28° (NNE) 1,079 -1.3 -14.3°
Drops below altitude 10° 12:34:47 10° 75° (ENE) 1,494 0.4 -13.9°
Sets 12:37:19 0° 94° (E) 2,355 2.0 -13.4°
